Time,TemperatureF,DewpointF,PressureIn,WindDirection,WindDirectionDegrees,WindSpeedMPH,WindSpeedGustMPH,Humidity,HourlyPrecipIn,Conditions,Clouds,dailyrainin,SoftwareType,DateUTC
2013-03-29 00:02:00,35.0,34.0,-100.00,NNW,337,6.0,9.0,95,0.00,,,-99.99,,2013-03-29 06:02:00,
2013-03-29 00:12:00,35.0,34.0,-100.00,NNW,337,6.0,9.0,95,0.00,,,-99.99,,2013-03-29 06:12:00,
2013-03-29 00:22:00,33.0,32.0,-100.00,NW,304,5.0,6.0,97,0.00,,,-99.99,,2013-03-29 06:22:00,
2013-03-29 00:32:00,33.0,32.0,-100.00,NW,304,5.0,6.0,97,0.00,,,-99.99,,2013-03-29 06:32:00,
2013-03-29 00:42:00,32.0,32.0,-100.00,WNW,302,4.0,5.0,100,0.00,,,-99.99,,2013-03-29 06:42:00,
2013-03-29 00:52:00,32.0,32.0,-100.00,WNW,302,4.0,5.0,100,0.00,,,-99.99,,2013-03-29 06:52:00,
2013-03-29 01:02:00,32.0,32.0,-100.00,WNW,302,4.0,5.0,100,0.00,,,-99.99,,2013-03-29 07:02:00,
2013-03-29 01:12:00,32.0,32.0,-100.00,WNW,295,4.0,5.0,100,0.00,,,-99.99,,2013-03-29 07:12:00,
2013-03-29 01:22:00,30.0,30.0,-100.00,West,281,2.0,3.0,100,0.00,,,-99.99,,2013-03-29 07:22:00,
2013-03-29 01:32:00,30.0,30.0,-100.00,West,281,2.0,3.0,100,0.00,,,-99.99,,2013-03-29 07:32:00,
2013-03-29 01:42:00,29.0,29.0,-100.00,West,271,1.0,2.0,100,0.00,,,-99.99,,2013-03-29 07:42:00,
2013-03-29 01:52:00,30.0,30.0,-100.00,WNW,294,1.0,2.0,100,0.00,,,-99.99,,2013-03-29 07:52:00,
2013-03-29 02:02:00,30.0,30.0,-100.00,WNW,294,1.0,2.0,100,0.00,,,-99.99,,2013-03-29 08:02:00,
2013-03-29 02:12:00,29.0,29.0,-100.00,WNW,282,1.0,1.0,100,0.00,,,-99.99,,2013-03-29 08:12:00,
2013-03-29 02:22:00,30.0,30.0,-100.00,NNW,344,0.0,1.0,100,0.00,,,-99.99,,2013-03-29 08:22:00,
2013-03-29 02:32:00,30.0,30.0,-100.00,NNW,344,0.0,1.0,100,0.00,,,-99.99,,2013-03-29 08:32:00,
2013-03-29 02:42:00,31.0,31.0,-100.00,NNW,337,1.0,2.0,100,0.00,,,-99.99,,2013-03-29 08:42:00,
2013-03-29 02:53:00,31.0,31.0,-100.00,NNW,328,0.0,0.0,100,0.00,,,-99.99,,2013-03-29 08:53:00,
2013-03-29 03:02:00,31.0,31.0,-100.00,NNW,328,0.0,0.0,100,0.00,,,-99.99,,2013-03-29 09:02:00,
2013-03-29 03:12:00,31.0,31.0,-100.00,WNW,295,0.0,1.0,100,0.00,,,-99.99,,2013-03-29 09:12:00,
2013-03-29 03:22:00,31.0,31.0,-100.00,NW,305,1.0,1.0,100,0.00,,,-99.99,,2013-03-29 09:22:00,
2013-03-29 03:32:00,31.0,31.0,-100.00,NW,305,1.0,1.0,100,0.00,,,-99.99,,2013-03-29 09:32:00,
2013-03-29 03:42:00,32.0,32.0,-100.00,NW,306,0.0,1.0,100,0.00,,,-99.99,,2013-03-29 09:42:00,
2013-03-29 03:52:00,32.0,32.0,-100.00,NW,308,0.0,1.0,100,0.00,,,-99.99,,2013-03-29 09:52:00,
2013-03-29 04:02:00,32.0,32.0,-100.00,NW,308,0.0,1.0,100,0.00,,,-99.99,,2013-03-29 10:02:00,
2013-03-29 04:12:00,33.0,33.0,-100.00,ESE,112,1.0,4.0,100,0.00,,,-99.99,,2013-03-29 10:12:00,
2013-03-29 04:22:00,34.0,33.0,-100.00,SE,137,1.0,2.0,98,0.00,,,-99.99,,2013-03-29 10:22:00,
2013-03-29 04:33:00,34.0,33.0,-100.00,SE,137,1.0,2.0,98,0.00,,,-99.99,,2013-03-29 10:33:00,
2013-03-29 04:42:00,34.0,33.0,-100.00,SE,133,1.0,2.0,98,0.00,,,-99.99,,2013-03-29 10:42:00,
2013-03-29 04:53:00,34.0,33.0,-100.00,SSE,152,1.0,2.0,97,0.00,,,-99.99,,2013-03-29 10:53:00,
2013-03-29 05:03:00,34.0,33.0,-100.00,SSE,152,1.0,2.0,97,0.00,,,-99.99,,2013-03-29 11:03:00,
2013-03-29 05:12:00,35.0,33.0,-100.00,SSE,152,2.0,3.0,94,0.00,,,-99.99,,2013-03-29 11:12:00,
2013-03-29 05:23:00,35.0,33.0,-100.00,SSE,148,3.0,4.0,93,0.00,,,-99.99,,2013-03-29 11:23:00,
2013-03-29 05:32:00,35.0,33.0,-100.00,SSE,148,3.0,4.0,93,0.00,,,-99.99,,2013-03-29 11:32:00,
2013-03-29 05:42:00,34.0,33.0,-100.00,SSE,158,2.0,4.0,93,0.00,,,-99.99,,2013-03-29 11:42:00,
2013-03-29 05:52:00,34.0,33.0,-100.00,SSE,158,2.0,4.0,93,0.00,,,-99.99,,2013-03-29 11:52:00,
2013-03-29 06:02:00,34.0,33.0,-100.00,SSE,158,2.0,4.0,93,0.00,,,-99.99,,2013-03-29 12:02:00,
2013-03-29 06:12:00,35.0,33.0,-100.00,SSE,160,2.0,4.0,93,0.00,,,-99.99,,2013-03-29 12:12:00,
2013-03-29 06:22:00,34.0,33.0,-100.00,SE,124,3.0,4.0,94,0.00,,,-99.99,,2013-03-29 12:22:00,
2013-03-29 06:32:00,34.0,33.0,-100.00,SE,124,3.0,4.0,94,0.00,,,-99.99,,2013-03-29 12:32:00,
2013-03-29 06:43:00,34.0,33.0,-100.00,SE,124,3.0,4.0,94,0.00,,,-99.99,,2013-03-29 12:43:00,
2013-03-29 06:52:00,33.0,32.0,-100.00,SE,143,2.0,4.0,98,0.00,,,-99.99,,2013-03-29 12:52:00,
2013-03-29 07:02:00,33.0,32.0,-100.00,SE,143,2.0,4.0,98,0.00,,,-99.99,,2013-03-29 13:02:00,
2013-03-29 07:12:00,33.0,32.0,-100.00,SE,143,2.0,4.0,98,0.00,,,-99.99,,2013-03-29 13:12:00,
2013-03-29 07:22:00,33.0,32.0,-100.00,SE,140,3.0,4.0,96,0.00,,,-99.99,,2013-03-29 13:22:00,
2013-03-29 07:42:00,33.0,33.0,-100.00,SE,140,3.0,4.0,99,0.00,,,-99.99,,2013-03-29 13:42:00,
2013-03-29 07:53:00,33.0,33.0,-100.00,SE,140,3.0,4.0,99,0.00,,,-99.99,,2013-03-29 13:53:00,
2013-03-29 08:02:00,33.0,33.0,-100.00,SE,140,3.0,4.0,99,0.00,,,-99.99,,2013-03-29 14:02:00,
2013-03-29 08:12:00,33.0,33.0,-100.00,SE,143,2.0,3.0,100,0.08,,,-99.99,,2013-03-29 14:12:00,
2013-03-29 08:22:00,33.0,33.0,-100.00,SE,143,2.0,3.0,100,0.08,,,-99.99,,2013-03-29 14:22:00,
2013-03-29 08:32:00,33.0,33.0,-100.00,SE,143,2.0,3.0,100,0.08,,,-99.99,,2013-03-29 14:32:00,
2013-03-29 08:42:00,34.0,34.0,-100.00,ESE,123,2.0,3.0,100,0.00,,,-99.99,,2013-03-29 14:42:00,
2013-03-29 08:52:00,34.0,34.0,-100.00,SE,130,2.0,3.0,100,0.00,,,-99.99,,2013-03-29 14:52:00,
2013-03-29 09:02:00,34.0,34.0,-100.00,SE,130,2.0,3.0,100,0.00,,,-99.99,,2013-03-29 15:02:00,
2013-03-29 09:12:00,34.0,34.0,-100.00,SE,130,2.0,3.0,100,0.00,,,-99.99,,2013-03-29 15:12:00,
2013-03-29 09:22:00,34.0,34.0,-100.00,SE,143,2.0,3.0,100,0.00,,,-99.99,,2013-03-29 15:22:00,
2013-03-29 09:33:00,34.0,34.0,-100.00,SE,143,2.0,3.0,100,0.00,,,-99.99,,2013-03-29 15:33:00,
2013-03-29 09:42:00,35.0,35.0,-100.00,ESE,114,2.0,2.0,99,0.00,,,-99.99,,2013-03-29 15:42:00,
2013-03-29 09:53:00,38.0,35.0,-100.00,NE,52,0.0,1.0,89,0.04,,,-99.99,,2013-03-29 15:53:00,
2013-03-29 10:03:00,38.0,35.0,-100.00,NE,52,0.0,1.0,89,0.04,,,-99.99,,2013-03-29 16:03:00,
2013-03-29 10:12:00,38.0,35.0,-100.00,NE,52,0.0,1.0,89,0.04,,,-99.99,,2013-03-29 16:12:00,
2013-03-29 10:23:00,35.0,35.0,-100.00,North,0,2.0,3.0,99,0.12,,,-99.99,,2013-03-29 16:23:00,
2013-03-29 10:32:00,35.0,35.0,-100.00,North,0,2.0,3.0,99,0.12,,,-99.99,,2013-03-29 16:32:00,
2013-03-29 10:43:00,35.0,35.0,-100.00,North,0,2.0,3.0,99,0.12,,,-99.99,,2013-03-29 16:43:00,
2013-03-29 10:53:00,35.0,35.0,-100.00,East,92,0.0,2.0,100,0.16,,,-99.99,,2013-03-29 16:53:00,
2013-03-29 11:02:00,35.0,35.0,-100.00,East,92,0.0,2.0,100,0.16,,,-99.99,,2013-03-29 17:02:00,
2013-03-29 11:12:00,36.0,36.0,-100.00,SE,143,1.0,2.0,99,0.04,,,-99.99,,2013-03-29 17:12:00,
2013-03-29 11:22:00,37.0,36.0,-100.00,West,278,0.0,2.0,98,0.04,,,-99.99,,2013-03-29 17:22:00,
2013-03-29 11:33:00,37.0,36.0,-100.00,West,278,0.0,2.0,98,0.04,,,-99.99,,2013-03-29 17:33:00,
2013-03-29 11:42:00,37.0,36.0,-100.00,SE,136,1.0,2.0,96,0.00,,,-99.99,,2013-03-29 17:42:00,
2013-03-29 11:52:00,37.0,36.0,-100.00,NNW,329,4.0,5.0,96,0.00,,,-99.99,,2013-03-29 17:52:00,
2013-03-29 12:02:00,37.0,36.0,-100.00,NNW,329,4.0,5.0,96,0.00,,,-99.99,,2013-03-29 18:02:00,
2013-03-29 12:12:00,39.0,37.0,-100.00,WNW,296,1.0,2.0,92,0.00,,,-99.99,,2013-03-29 18:12:00,
2013-03-29 12:22:00,42.0,36.0,-100.00,WSW,257,2.0,2.0,80,0.00,,,-99.99,,2013-03-29 18:22:00,
2013-03-29 12:32:00,42.0,36.0,-100.00,WSW,257,2.0,2.0,80,0.00,,,-99.99,,2013-03-29 18:32:00,
2013-03-29 12:43:00,42.0,36.0,-100.00,WSW,257,2.0,2.0,80,0.00,,,-99.99,,2013-03-29 18:43:00,
2013-03-29 12:52:00,40.0,35.0,-100.00,South,178,3.0,5.0,82,0.00,,,-99.99,,2013-03-29 18:52:00,
2013-03-29 13:02:00,40.0,35.0,-100.00,South,178,3.0,5.0,82,0.00,,,-99.99,,2013-03-29 19:02:00,
2013-03-29 13:12:00,42.0,36.0,-100.00,South,182,2.0,5.0,81,0.00,,,-99.99,,2013-03-29 19:12:00,
2013-03-29 13:22:00,40.0,34.0,-100.00,South,186,4.0,6.0,79,0.00,,,-99.99,,2013-03-29 19:22:00,
2013-03-29 13:32:00,40.0,34.0,-100.00,South,186,4.0,6.0,79,0.00,,,-99.99,,2013-03-29 19:32:00,
2013-03-29 13:43:00,40.0,34.0,-100.00,South,186,4.0,6.0,79,0.00,,,-99.99,,2013-03-29 19:43:00,
2013-03-29 13:52:00,40.0,35.0,-100.00,West,263,2.0,3.0,82,0.04,,,-99.99,,2013-03-29 19:52:00,
2013-03-29 14:02:00,40.0,35.0,-100.00,West,263,2.0,3.0,82,0.04,,,-99.99,,2013-03-29 20:02:00,
2013-03-29 14:12:00,38.0,35.0,-100.00,NNW,342,4.0,7.0,89,0.04,,,-99.99,,2013-03-29 20:12:00,
2013-03-29 14:22:00,43.0,36.0,-100.00,West,271,3.0,5.0,76,0.00,,,-99.99,,2013-03-29 20:22:00,
2013-03-29 14:32:00,43.0,36.0,-100.00,West,271,3.0,5.0,76,0.00,,,-99.99,,2013-03-29 20:32:00,
2013-03-29 14:42:00,41.0,34.0,-100.00,NNW,346,3.0,5.0,76,0.00,,,-99.99,,2013-03-29 20:42:00,
2013-03-29 14:52:00,42.0,34.0,-100.00,NW,312,1.0,2.0,72,0.00,,,-99.99,,2013-03-29 20:52:00,
2013-03-29 15:02:00,42.0,34.0,-100.00,NW,312,1.0,2.0,72,0.00,,,-99.99,,2013-03-29 21:02:00,
2013-03-29 15:12:00,41.0,33.0,-100.00,ENE,58,3.0,4.0,72,0.00,,,-99.99,,2013-03-29 21:12:00,
2013-03-29 15:22:00,43.0,32.0,-100.00,WNW,284,3.0,6.0,63,0.00,,,-99.99,,2013-03-29 21:22:00,
2013-03-29 15:32:00,43.0,32.0,-100.00,WNW,284,3.0,6.0,63,0.00,,,-99.99,,2013-03-29 21:32:00,
2013-03-29 15:43:00,43.0,32.0,-100.00,WNW,284,3.0,6.0,63,0.00,,,-99.99,,2013-03-29 21:43:00,
2013-03-29 15:53:00,43.0,33.0,-100.00,WNW,298,7.0,12.0,66,0.00,,,-99.99,,2013-03-29 21:53:00,
2013-03-29 16:02:00,43.0,33.0,-100.00,WNW,298,7.0,12.0,66,0.00,,,-99.99,,2013-03-29 22:02:00,
2013-03-29 16:12:00,45.0,31.0,-100.00,WSW,254,4.0,9.0,57,0.00,,,-99.99,,2013-03-29 22:12:00,
2013-03-29 16:22:00,45.0,32.0,-100.00,WNW,284,3.0,6.0,60,0.00,,,-99.99,,2013-03-29 22:22:00,
2013-03-29 16:33:00,45.0,32.0,-100.00,WNW,284,3.0,6.0,60,0.00,,,-99.99,,2013-03-29 22:33:00,
2013-03-29 16:42:00,45.0,32.0,-100.00,South,188,3.0,6.0,59,0.00,,,-99.99,,2013-03-29 22:42:00,
2013-03-29 16:53:00,41.0,34.0,-100.00,NW,320,6.0,9.0,75,0.00,,,-99.99,,2013-03-29 22:53:00,
2013-03-29 17:02:00,41.0,34.0,-100.00,NW,320,6.0,9.0,75,0.00,,,-99.99,,2013-03-29 23:02:00,
2013-03-29 17:12:00,39.0,35.0,-100.00,NNW,333,8.0,11.0,84,0.00,,,-99.99,,2013-03-29 23:12:00,
2013-03-29 17:22:00,39.0,35.0,-100.00,NNW,333,8.0,11.0,84,0.00,,,-99.99,,2013-03-29 23:22:00,
2013-03-29 17:32:00,39.0,35.0,-100.00,NNW,333,8.0,11.0,84,0.00,,,-99.99,,2013-03-29 23:32:00,
2013-03-29 17:42:00,38.0,35.0,-100.00,NW,325,8.0,11.0,86,0.00,,,-99.99,,2013-03-29 23:42:00,
2013-03-29 17:52:00,38.0,34.0,-100.00,NW,305,6.0,9.0,87,0.04,,,-99.99,,2013-03-29 23:52:00,
2013-03-29 18:02:00,38.0,34.0,-100.00,NW,305,6.0,9.0,87,0.04,,,-99.99,,2013-03-30 00:02:00,
2013-03-29 18:12:00,40.0,35.0,-100.00,NW,319,4.0,6.0,82,0.00,,,-99.99,,2013-03-30 00:12:00,
2013-03-29 18:22:00,40.0,35.0,-100.00,NW,319,4.0,6.0,82,0.00,,,-99.99,,2013-03-30 00:22:00,
2013-03-29 18:32:00,40.0,35.0,-100.00,NW,319,4.0,6.0,82,0.00,,,-99.99,,2013-03-30 00:32:00,
2013-03-29 18:42:00,39.0,35.0,-100.00,NNW,332,3.0,5.0,85,0.00,,,-99.99,,2013-03-30 00:42:00,
2013-03-29 18:53:00,40.0,35.0,-100.00,NW,318,6.0,8.0,81,0.00,,,-99.99,,2013-03-30 00:53:00,
2013-03-29 19:02:00,40.0,35.0,-100.00,NW,318,6.0,8.0,81,0.00,,,-99.99,,2013-03-30 01:02:00,
2013-03-29 19:12:00,39.0,35.0,-100.00,NW,325,4.0,6.0,85,0.00,,,-99.99,,2013-03-30 01:12:00,
2013-03-29 19:22:00,39.0,34.0,-100.00,NE,55,3.0,4.0,82,0.00,,,-99.99,,2013-03-30 01:22:00,
2013-03-29 19:32:00,39.0,34.0,-100.00,NE,55,3.0,4.0,82,0.00,,,-99.99,,2013-03-30 01:32:00,
2013-03-29 19:43:00,39.0,34.0,-100.00,NE,55,3.0,4.0,82,0.00,,,-99.99,,2013-03-30 01:43:00,
2013-03-29 19:52:00,39.0,34.0,-100.00,South,175,0.0,1.0,83,0.00,,,-99.99,,2013-03-30 01:52:00,
2013-03-29 20:02:00,39.0,34.0,-100.00,South,175,0.0,1.0,83,0.00,,,-99.99,,2013-03-30 02:02:00,
2013-03-29 20:12:00,37.0,34.0,-100.00,NW,322,5.0,7.0,87,0.00,,,-99.99,,2013-03-30 02:12:00,
2013-03-29 20:22:00,37.0,34.0,-100.00,NW,322,5.0,7.0,87,0.00,,,-99.99,,2013-03-30 02:22:00,
2013-03-29 20:32:00,37.0,34.0,-100.00,NW,322,5.0,7.0,87,0.00,,,-99.99,,2013-03-30 02:32:00,
2013-03-29 20:42:00,37.0,34.0,-100.00,NNW,332,5.0,9.0,88,0.00,,,-99.99,,2013-03-30 02:42:00,
2013-03-29 20:53:00,37.0,34.0,-100.00,NNW,332,5.0,7.0,88,0.00,,,-99.99,,2013-03-30 02:53:00,
2013-03-29 21:02:00,37.0,34.0,-100.00,NNW,332,5.0,7.0,88,0.00,,,-99.99,,2013-03-30 03:02:00,
2013-03-29 21:12:00,36.0,33.0,-100.00,NNW,330,2.0,4.0,88,0.00,,,-99.99,,2013-03-30 03:12:00,
2013-03-29 21:22:00,35.0,33.0,-100.00,SW,223,1.0,2.0,90,0.00,,,-99.99,,2013-03-30 03:22:00,
2013-03-29 21:33:00,35.0,33.0,-100.00,SW,223,1.0,2.0,90,0.00,,,-99.99,,2013-03-30 03:33:00,
2013-03-29 21:43:00,35.0,32.0,-100.00,WSW,257,1.0,4.0,91,0.00,,,-99.99,,2013-03-30 03:43:00,
2013-03-29 21:53:00,35.0,32.0,-100.00,WSW,257,1.0,4.0,91,0.00,,,-99.99,,2013-03-30 03:53:00,
2013-03-29 22:02:00,35.0,32.0,-100.00,WSW,257,1.0,4.0,91,0.00,,,-99.99,,2013-03-30 04:02:00,
2013-03-29 22:12:00,35.0,34.0,-100.00,NW,322,3.0,5.0,93,0.04,,,-99.99,,2013-03-30 04:12:00,
2013-03-29 22:23:00,35.0,34.0,-100.00,NW,322,3.0,5.0,93,0.04,,,-99.99,,2013-03-30 04:23:00,
2013-03-29 22:32:00,35.0,34.0,-100.00,NW,322,3.0,5.0,93,0.04,,,-99.99,,2013-03-30 04:32:00,
2013-03-29 22:42:00,35.0,34.0,-100.00,NW,312,2.0,4.0,97,0.00,,,-99.99,,2013-03-30 04:42:00,
2013-03-29 22:53:00,34.0,34.0,-100.00,WNW,292,2.0,3.0,99,0.00,,,-99.99,,2013-03-30 04:53:00,
2013-03-29 23:00:00,34.0,34.0,-100.00,NW,311,2.0,3.0,100,0.00,,,-99.99,,2013-03-30 05:00:00,
2013-03-29 23:02:00,34.0,34.0,-100.00,WNW,292,2.0,3.0,99,0.00,,,-99.99,,2013-03-30 05:02:00,
2013-03-29 23:12:00,34.0,34.0,-100.00,WNW,292,2.0,3.0,99,0.00,,,-99.99,,2013-03-30 05:12:00,
2013-03-29 23:22:00,34.0,34.0,-100.00,NNW,330,2.0,3.0,99,0.00,,,-99.99,,2013-03-30 05:22:00,
2013-03-29 23:32:00,34.0,34.0,-100.00,NNW,330,2.0,3.0,99,0.00,,,-99.99,,2013-03-30 05:32:00,
2013-03-29 23:42:00,34.0,34.0,-100.00,NW,311,2.0,3.0,100,0.00,,,-99.99,,2013-03-30 05:42:00,
2013-03-29 23:52:00,34.0,34.0,-100.00,NW,311,2.0,3.0,100,0.00,,,-99.99,,2013-03-30 05:52:00,